Skip Navigation Links
NOAA logo - Click to go to the NOAA homepage
NOAA's National Weather Service
Alaska Aviation Weather Unit
  NWS logo - Click to go to the NWS homepage
Left Navbar Graphic     10 AKDT = 18 GMT

   
NOAA is celebrating 200 years of science, service, and stewardship. Visit the NOAA 200th celebration Web site to learn more.
USA.gov is the U.S. Government's official Web portal to all Federal, state and local government Web resources and services.
Facebook
NWS on Facebook

Important Change Regarding the AAWU Web Presence

 

Over the last several months, the AAWU has been working to navigate its webpages to a nationally supported server. Security, as well as other needs, have necessitated the change.  We have been given an extension for the site changeover while we diligently work at addressing feedback received. As of July 14, 2017, aawu.arh.noaa.gov will be discontinued. The new AAWU web address is weather.gov/aawu. It is now live and will run in-parallel with the old site until it is discontinued on July 14, 2017. Please continue to send any feedback or questions regarding the new webpages to nws.ar.aawu.webauthors@noaa.gov.  Thank you for your patience during this time of transition.
AAWU Home :: Display TAF Add Bookmark
TAF PAOR 261728Z 2618/2718  VRB04KT P6SM BKN120 BKN250
     FM262200 01006KT P6SM FEW060 BKN120 OVC250
     FM270400 35006KT P6SM -RA BKN060 OVC120
     FM271400 04003KT P6SM BCFG BKN040 OVC100=

3358
FTAK31 PAFA 261728
TAFAOM
TAF
METAR PAOR 261253Z 25004KT 10SM FEW075 SCT180 M03/M03 A2978=

METAR PAOR 261353Z 00000KT 10SM BKN080 BKN170 M02/M02 A2979=

METAR PAOR 261453Z AUTO 00000KT 10SM OVC080 M02/M02 A2978=

METAR PAOR 261553Z AUTO 00000KT 10SM CLR M02/M02 A2978=

METAR PAOR 261653Z 00000KT 10SM BKN180 BKN250 M01/M01 A2978=

METAR PAOR 261753Z 00000KT 10SM BKN180 BKN250 01/00 A2978=


NOAA's National Weather Service
Alaska Aviation Weather Unit
6930 Sand Lake Road
Anchorage, AK 99502-1845
Disclaimer
Credits
Glossary
Privacy Policy
About Us
Career Opportunities
Contact AAWU Internet Services Site last modified: April, 17th 2012